Theta_e
319 311 310 309 299 293 288 291 293 295 294 296 302 302 300 301 301 293 315 332 341 347 349 350 351 353 353 352 352 352 353 352 350 349 347 345 343 342 341 339 338 338 336 334 334 337 339 341 341
318 314 310 300 292 286 287 291 294 296 298 301 301 299 302 303 311 314 317 338 345 347 349 349 348 352 353 352 353 353 352 352 349 349 347 345 342 341 340 338 336 336 334 333 332 334 338 339 340
315 311 302 295 288 287 288 292 294 296 299 298 298 303 303 305 311 313 319 337 345 346 348 347 347 352 352 352 352 352 351 351 349 347 347 344 342 340 338 336 336 334 332 330 331 332 335 336 339
307 305 300 291 288 290 293 295 296 297 297 299 300 300 308 313 314 318 326 342 342 345 347 345 348 351 351 351 351 350 350 350 348 347 345 343 342 339 337 336 334 333 330 328 328 329 331 333 335
304 298 292 289 287 291 292 296 296 296 295 296 298 297 304 311 319 323 328 336 338 342 345 346 346 348 349 349 350 350 349 348 348 346 346 342 341 339 337 335 333 331 329 325 325 325 326 328 328
299 295 289 287 288 291 293 297 298 295 295 298 299 298 300 306 315 322 327 328 338 340 343 345 341 342 345 347 348 348 347 347 347 347 345 343 341 339 337 336 334 332 328 322 321 320 321 323 323
295 290 288 287 289 291 295 296 295 295 296 295 300 297 298 303 310 320 317 317 321 328 334 342 343 340 339 341 342 343 345 344 345 345 344 342 341 339 337 336 334 333 329 321 319 318 318 319 319
296 292 290 288 290 291 295 296 296 296 295 299 298 294 294 300 311 313 313 310 310 312 315 320 338 339 339 338 334 337 340 340 341 340 338 335 335 335 335 332 334 332 329 325 322 320 318 317 316
296 289 286 287 289 293 295 295 297 297 297 296 298 296 298 303 309 308 306 306 306 307 308 309 314 331 335 338 338 333 335 336 335 335 331 329 335 333 331 329 333 332 331 328 325 321 319 317 319
294 288 290 291 292 293 295 295 297 294 295 294 295 298 300 302 305 305 303 301 300 302 307 308 309 310 320 332 338 340 337 338 338 337 333 333 332 331 330 327 328 328 328 329 327 323 318 311 304
293 289 293 293 296 297 297 294 296 294 292 295 296 298 299 299 301 301 299 299 300 302 307 309 310 311 310 323 334 338 334 333 334 336 334 333 331 329 328 325 324 322 319 318 317 313 311 309 307
291 295 295 298 298 296 295 296 295 295 295 298 298 298 297 297 298 298 299 300 302 305 305 307 309 310 311 312 329 333 333 331 331 334 334 332 329 327 325 324 322 319 316 314 313 312 312 311 310
293 294 297 298 298 296 298 296 295 295 295 296 298 298 297 296 297 297 299 300 303 304 303 306 309 311 313 312 329 328 327 327 327 327 329 331 329 327 327 323 321 320 318 316 313 310 309 309 310
296 296 296 297 298 297 296 294 296 294 295 295 297 296 295 296 296 295 298 299 303 304 303 307 313 314 314 326 324 322 322 321 321 321 323 327 329 327 323 320 318 316 315 313 311 308 307 306 307
296 292 294 296 296 296 296 293 294 295 294 294 295 294 294 295 295 296 296 299 302 303 304 307 310 317 319 318 318 318 318 317 316 316 318 319 320 318 316 315 313 313 313 312 310 308 305 301 302
291 290 287 293 295 295 295 290 295 295 294 293 293 292 293 294 295 295 296 300 300 301 304 305 310 312 314 313 314 314 314 313 312 313 314 314 315 314 313 311 310 310 309 306 302 301 297 296 297
288 285 286 291 295 293 292 291 294 293 293 292 291 291 292 292 293 293 297 298 299 301 303 303 306 308 310 310 310 308 308 308 307 309 309 310 310 309 308 306 304 304 304 302 297 294 294 293 295
285 285 287 288 292 291 289 290 292 293 292 293 292 291 291 292 293 293 296 297 298 300 301 301 305 305 306 304 302 301 300 299 301 301 303 304 304 302 300 298 296 296 297 296 293 290 289 290 294
289 287 287 289 294 291 290 291 294 293 291 290 290 291 292 293 292 293 296 297 297 299 300 300 302 303 303 301 299 299 296 295 295 295 296 296 296 295 293 291 291 291 291 291 292 289 286 286 288
290 287 288 290 293 291 290 290 292 292 292 294 294 294 293 291 290 292 294 295 297 298 299 301 302 303 304 303 297 295 293 291 292 292 291 291 291 290 290 289 288 287 287 286 286 287 285 284 284
289 288 286 289 290 289 287 287 289 292 294 294 295 297 295 293 291 291 293 294 295 297 299 301 303 304 300 296 294 291 291 291 290 289 287 288 289 288 288 287 287 286 285 284 283 283 283 282 282
287 292 291 290 287 284 288 283 287 290 291 292 295 295 294 292 292 292 294 294 295 297 300 304 304 298 296 295 293 292 292 289 288 287 286 286 287 286 286 286 285 284 284 283 283 283 282 282 280
289 292 290 288 285 282 284 281 286 290 290 293 296 294 292 292 291 291 293 295 296 297 300 303 299 296 296 295 294 292 290 287 286 285 284 284 284 284 284 284 283 283 283 281 281 281 281 281 280
293 290 289 286 284 279 284 284 285 287 291 293 297 295 291 290 291 292 294 295 294 294 296 298 296 294 295 294 291 290 287 286 284 283 283 282 282 282 282 283 283 282 282 282 281 281 280 280 280
291 288 280 278 277 279 284 282 289 291 293 293 295 294 289 289 289 290 291 292 292 292 293 295 295 293 292 291 290 289 287 286 284 283 283 282 281 280 280 282 282 282 282 281 281 280 280 280 279
288 287 281 274 276 279 283 280 286 291 294 294 293 291 288 288 290 290 291 291 292 292 292 294 293 291 290 289 288 287 286 285 285 284 283 282 281 281 281 281 281 281 281 280 280 280 279 278 278
286 285 290 284 272 275 282 285 290 290 291 291 291 288 286 287 288 289 290 290 290 290 291 292 291 290 289 288 287 286 286 285 284 283 282 282 281 281 280 280 280 280 279 279 279 279 278 278 277
288 290 283 282 273 272 280 281 286 288 289 292 290 288 287 287 286 287 287 288 289 289 289 291 290 289 288 288 287 286 285 285 283 282 281 281 281 280 279 279 279 279 279 279 278 277 278 277 277
286 285 286 286 281 276 275 283 289 290 291 291 292 288 287 287 286 286 286 287 287 286 285 287 288 287 286 286 285 284 284 283 282 281 281 280 280 279 279 279 279 279 278 278 277 277 277 276 276
288 288 288 284 280 281 280 285 289 290 290 290 291 289 287 288 286 286 286 285 285 284 284 285 284 284 285 285 284 284 283 282 281 281 280 280 279 279 279 279 279 278 278 277 276 276 276 275 275
Wind_Speed
6 6 2 6 6 7 2 2 2 1 3 3 4 10 10 4 2 4 2 0 11 10 8 9 11 11 11 11 11 11 11 13 14 15 16 16 15 15 14 14 15 14 14 14 14 14 14 13 13
4 3 5 3 7 5 4 1 4 3 5 8 8 4 7 3 2 2 2 6 11 10 8 8 10 11 11 11 10 10 9 11 13 15 15 16 14 14 14 13 13 13 14 15 14 14 13 14 14
2 2 5 6 4 5 6 4 6 3 8 4 5 6 4 1 2 2 2 10 8 9 8 7 11 12 11 10 9 9 9 11 13 14 14 14 13 13 13 14 14 13 14 14 14 14 14 14 15
2 5 5 7 4 2 8 7 6 5 2 6 5 7 3 1 2 4 4 11 7 10 10 10 12 12 12 11 9 8 10 10 12 14 15 14 14 14 14 14 13 13 14 14 15 15 14 14 15
5 4 5 4 1 1 2 5 6 5 3 3 2 5 3 3 3 5 7 8 7 6 10 10 13 14 13 12 11 10 10 11 12 13 14 14 14 14 14 14 13 13 13 14 14 14 14 15 15
5 4 6 2 3 2 2 7 7 4 3 4 7 5 4 3 3 5 7 6 4 6 6 6 9 9 11 11 11 10 10 11 12 13 15 15 15 15 14 14 13 13 13 14 14 14 15 15 16
7 5 5 4 4 2 4 2 6 5 6 2 10 6 2 2 4 5 8 8 8 7 6 3 6 8 9 9 9 9 9 10 11 13 14 13 13 14 14 13 13 13 13 14 15 15 15 15 15
6 5 3 1 5 4 3 2 4 6 3 4 1 7 6 5 7 6 7 7 7 6 6 6 4 5 5 4 7 9 10 10 11 12 12 12 12 12 12 10 12 14 14 13 13 14 14 14 14
4 6 1 0 4 4 3 3 1 3 7 4 4 4 3 9 8 5 4 4 4 4 5 5 5 4 4 5 6 8 11 14 13 11 13 11 7 8 8 5 11 10 10 11 11 11 12 12 11
6 4 5 2 2 3 2 3 7 4 4 3 3 2 3 5 6 7 6 5 3 3 3 4 4 3 2 2 1 5 7 5 7 9 9 5 5 5 6 6 10 11 9 10 11 12 12 9 5
3 4 4 2 2 1 4 1 4 8 4 7 10 10 6 5 6 8 6 6 5 3 2 4 4 4 2 1 1 1 2 3 3 8 8 6 5 5 4 3 4 3 5 3 5 5 4 6 4
2 1 3 3 3 2 4 1 3 6 6 3 8 9 6 8 8 8 8 7 6 4 2 1 3 3 3 2 1 2 4 4 3 3 7 6 4 5 5 4 4 3 3 5 4 3 5 6 6
2 1 2 1 4 4 2 5 6 6 4 5 9 8 9 8 7 6 7 5 6 5 2 2 3 4 3 3 3 4 5 5 4 4 5 6 6 6 4 4 3 3 3 3 4 4 4 5 6
4 1 4 5 5 3 5 4 5 4 7 7 8 9 9 10 9 5 7 6 6 5 4 2 0 1 4 4 6 4 5 5 5 4 4 6 6 6 5 5 5 4 3 3 4 4 4 4 5
1 3 5 6 5 5 4 7 11 6 9 10 10 8 8 10 9 10 8 7 7 4 4 3 3 3 6 6 6 5 4 5 6 4 6 7 7 8 8 6 5 3 4 5 5 5 5 5 4
2 3 3 3 7 3 6 12 6 8 13 12 10 9 9 9 9 8 7 7 6 5 6 3 3 4 5 7 6 5 5 6 5 4 5 8 8 9 9 6 5 3 5 5 4 4 5 4 4
5 4 5 9 7 4 5 9 3 5 8 9 10 10 10 9 9 8 8 8 7 7 6 5 5 6 7 8 8 7 8 6 5 5 5 7 8 8 8 7 4 3 6 5 4 5 3 4 4
6 5 5 7 5 3 4 14 6 5 8 13 11 10 11 12 15 8 8 7 7 6 6 6 5 7 8 8 8 7 7 6 5 6 5 7 7 9 9 7 5 6 6 4 5 6 6 4 4
5 5 6 4 4 5 9 14 15 9 8 10 11 13 14 17 8 9 8 8 7 6 7 7 9 8 8 8 8 6 5 5 6 6 7 8 7 8 8 6 7 5 6 5 5 4 7 7 4
5 5 10 8 6 8 9 14 10 8 10 17 18 18 17 9 10 11 9 8 9 9 8 8 10 10 8 6 6 5 5 5 5 6 7 6 7 6 7 7 6 6 6 6 5 4 3 4 5
9 9 5 9 3 4 4 10 10 10 14 11 17 19 14 19 17 14 13 11 9 10 10 10 11 11 7 10 10 8 9 7 5 5 4 4 6 6 7 8 8 7 5 6 5 5 6 4 5
7 7 6 6 2 7 4 12 7 6 12 10 19 18 16 14 14 16 16 13 13 11 8 11 13 10 11 12 11 14 10 10 3 4 4 5 6 7 7 9 8 7 5 8 6 5 5 4 4
7 4 5 2 3 2 4 7 8 7 9 13 18 13 13 15 20 20 19 16 12 10 11 11 11 11 12 11 10 8 9 8 8 6 8 7 6 6 7 7 8 9 7 7 7 7 8 4 4
7 5 6 5 3 7 11 10 7 8 13 7 16 9 12 13 16 14 12 12 10 8 9 11 13 11 12 11 11 11 15 15 11 9 8 5 4 4 6 7 8 8 8 8 7 7 8 6 6
5 7 2 4 1 10 4 8 16 7 6 10 14 9 9 11 14 14 16 15 13 13 11 11 13 11 11 12 12 13 13 16 17 14 10 11 7 4 5 6 7 7 7 7 6 7 6 5 5
9 9 8 8 6 6 2 11 8 9 9 9 9 6 8 11 13 15 17 16 16 14 13 14 13 12 13 13 13 13 13 10 10 10 10 8 7 7 6 7 8 8 8 7 6 6 5 6 5
6 9 5 2 2 3 7 9 9 8 9 10 13 1 7 10 11 13 13 14 15 14 14 15 14 13 14 14 14 13 13 13 12 11 8 7 8 7 8 9 10 8 8 7 7 5 6 5 5
7 7 3 2 2 6 6 9 12 6 9 16 10 8 8 8 9 10 12 13 12 12 10 11 12 13 13 13 13 12 12 11 10 10 11 11 9 9 9 9 8 8 7 7 7 5 5 6 4
4 4 3 5 6 6 4 11 7 6 7 9 11 9 10 12 12 12 11 11 11 10 9 10 11 11 11 12 11 12 10 10 10 10 10 11 10 10 10 10 10 9 9 7 7 6 6 6 5
1 8 7 8 7 5 2 20 6 5 4 6 9 5 7 10 11 12 11 10 10 11 11 12 10 11 11 11 11 12 11 11 12 11 11 10 12 10 11 10 9 9 8 7 7 7 6 6 5
Wind_Direction
341 326 82 44 59 66 354 60 152 97 55 4 36 99 116 67 72 188 283 138 139 143 146 145 138 129 123 118 116 113 110 110 105 106 101 95 91 87 81 75 70 68 66 65 64 62 62 61 51
344 343 45 84 83 72 287 304 133 156 126 135 91 81 51 60 77 134 107 168 140 143 147 147 145 137 130 122 116 109 106 110 118 114 111 104 97 93 87 82 77 74 69 63 62 64 61 58 51
312 51 80 91 109 154 169 211 173 175 165 157 87 54 97 71 332 166 206 157 147 149 152 153 153 147 137 133 127 122 119 119 124 123 115 110 105 94 86 82 77 74 72 72 71 70 65 58 57
57 14 31 84 124 240 161 193 197 141 116 84 119 70 37 343 180 190 116 151 144 160 159 164 166 156 149 143 138 131 126 125 134 135 126 121 115 106 96 91 85 79 72 67 66 65 64 62 61
38 60 60 83 46 108 144 185 181 150 132 97 135 149 103 2 10 40 116 142 152 171 168 169 170 162 155 152 146 141 137 137 143 141 132 128 122 111 104 94 87 80 78 78 75 71 68 66 64
41 90 63 131 190 195 231 178 143 147 133 162 79 96 180 312 42 16 72 73 98 136 137 143 160 154 147 156 153 149 147 144 144 141 138 134 127 119 113 107 101 93 88 89 84 76 72 71 69
107 81 171 147 174 170 208 166 121 157 134 88 144 114 231 265 82 107 83 70 61 51 64 102 139 143 155 158 161 160 153 146 143 141 142 137 132 127 125 120 110 98 92 91 87 81 78 74 71
103 92 93 85 184 214 228 64 123 134 126 126 61 168 190 217 137 113 90 81 71 66 62 45 66 122 138 157 176 171 160 155 149 142 139 136 133 137 138 136 125 114 106 102 97 90 82 77 71
99 63 118 125 171 213 174 138 4 85 97 62 357 150 185 142 129 109 87 64 64 59 57 59 60 75 130 176 192 196 177 162 158 148 146 146 150 149 139 140 121 105 99 101 107 104 97 85 67
81 99 199 193 177 190 215 187 165 124 123 49 44 19 103 124 152 146 146 144 126 105 55 52 50 57 29 344 359 192 167 171 158 154 160 149 126 129 119 109 91 82 64 56 73 71 58 51 47
146 159 206 213 177 191 174 217 197 129 223 195 190 185 168 135 148 154 159 166 163 129 44 19 19 1 20 286 268 265 120 122 133 151 152 142 124 122 111 107 108 103 88 76 70 61 53 56 63
86 238 199 197 164 154 182 238 223 180 216 187 191 158 154 157 162 164 164 172 158 146 163 346 345 323 285 257 240 81 111 101 103 116 152 146 139 138 136 132 125 119 106 92 79 67 69 59 52
157 264 268 209 199 203 156 232 217 239 159 114 127 148 165 169 173 180 174 162 151 164 203 282 297 261 249 198 127 106 103 103 98 93 120 143 147 143 130 120 107 96 99 101 85 77 61 54 56
173 216 276 268 238 246 191 234 162 241 155 158 162 180 178 179 180 161 174 168 168 166 191 250 227 256 213 158 116 105 100 101 86 70 83 113 129 131 116 104 90 84 79 74 81 78 74 73 69
157 300 317 241 210 230 151 288 235 175 163 180 197 194 191 198 184 191 188 179 173 184 177 185 108 166 131 113 103 101 100 94 86 77 77 93 104 108 108 102 93 96 93 91 84 81 68 62 55
360 44 332 283 139 236 133 269 255 174 165 200 204 207 207 211 205 195 180 169 178 169 179 165 131 105 104 111 103 95 89 90 83 70 78 81 92 106 104 105 86 82 89 85 71 64 64 58 65
355 242 222 310 191 141 170 261 262 166 183 206 210 210 210 214 216 197 178 175 176 177 164 151 134 119 115 110 99 89 83 79 81 78 78 86 88 92 99 96 84 96 81 75 80 55 82 65 68
206 222 241 231 209 155 219 262 266 215 206 222 218 218 212 213 213 184 177 174 168 172 160 148 130 124 125 109 101 87 78 70 70 71 71 91 94 94 95 86 84 74 85 77 68 76 53 67 71
171 198 239 245 218 179 226 240 250 221 233 242 236 228 220 219 185 175 175 166 162 167 160 164 144 147 141 129 121 110 102 93 76 70 61 71 77 83 96 100 94 90 99 101 95 94 68 35 5
234 236 258 296 228 182 253 252 244 218 232 224 229 232 221 191 177 178 172 171 175 172 175 166 158 158 154 142 111 112 121 89 86 86 64 58 80 86 92 95 83 75 89 67 58 60 92 66 4
232 222 235 230 349 246 322 271 238 244 237 242 241 238 221 204 185 177 178 180 175 180 175 171 162 160 135 123 115 108 107 109 101 85 70 51 77 81 90 86 89 76 74 78 68 65 79 107 24
220 210 212 249 311 261 137 284 225 236 244 233 249 232 221 192 184 176 179 182 183 184 172 166 160 148 141 143 142 150 146 142 113 113 108 86 68 76 84 89 92 95 96 85 72 56 80 99 92
228 180 206 240 230 334 199 278 274 203 244 249 248 239 208 193 180 182 185 178 177 167 168 165 153 150 149 147 153 140 129 109 116 106 103 93 80 75 83 95 100 94 88 80 86 73 68 61 96
147 86 50 50 30 268 203 216 187 202 221 246 262 242 197 183 185 181 167 160 164 157 155 155 153 154 153 153 147 145 142 136 131 132 123 113 105 97 87 94 99 97 97 93 87 79 78 81 78
127 114 300 321 333 250 323 230 252 290 241 218 250 256 189 178 174 165 162 168 163 165 164 159 157 156 153 150 148 148 152 145 146 148 146 143 135 119 127 121 108 104 102 97 97 93 89 82 91
193 163 162 214 211 277 341 246 257 231 262 255 270 258 171 178 179 176 172 168 168 169 166 164 163 159 157 153 149 151 152 150 147 150 149 146 143 145 148 127 117 115 112 108 102 97 100 102 96
200 212 183 16 90 1 227 288 278 258 285 270 262 209 170 182 181 174 167 170 169 172 175 169 165 162 162 157 154 157 156 156 158 148 143 142 140 144 142 131 127 122 119 118 115 111 110 110 104
154 168 91 10 210 253 280 268 242 275 245 249 268 226 195 171 160 167 172 172 175 173 171 170 167 166 164 158 159 161 159 154 147 147 148 150 148 142 138 133 128 124 125 127 120 120 121 111 118
150 177 173 134 155 189 276 258 216 226 245 264 264 218 185 180 178 175 177 178 172 164 156 159 161 156 160 159 157 153 152 147 148 152 153 152 143 146 147 148 141 141 140 137 127 125 133 126 128
338 195 169 172 207 238 153 266 172 189 245 265 292 229 182 175 171 171 174 169 165 162 162 166 162 163 165 156 152 157 152 152 154 160 159 156 155 158 157 151 148 144 139 139 142 147 143 149 165